Location: Columbus
(35.2256°N, 82.1549°W)
Time: 00:30:23
(UTC-05:00)

Envisat - Pass Details

Date: 30 November 2021
Orbit: 764 x 766 km, 98.2° (Epoch: 25 January)

Event Time Altitude Azimuth Distance (km) Brightness Sun altitude
Rises 04:44:27 0° 23° (NNE) 3,236 6.4 -30.8°
Reaches altitude 10° 04:46:59 10° 34° (NNE) 2,306 5.7 -30.3°
Maximum altitude 04:51:32 33° 97° (E) 1,277 4.6 -29.4°
Drops below altitude 10° 04:56:03 10° 161° (SSE) 2,291 5.7 -28.5°
Sets 04:58:33 0° 170° (S) 3,213 6.4 -28.0°
